STARLINK-1597, 46142

Orbit data source: Space-Track

STARLINK-1597, 46142 is a payload satellite owned by SpaceX/Seattle (US) in LEO that was launched on Tue, 18 Aug 2020 UTC via an FALCON 9 launch vehicle from the Air Force Eastern Test Range (AFETR). Payloads include a variety of satellites, spacecraft, and rockets equipped with specific instruments for various scientific and technological missions. These include communications satellites like Starlink; space stations such as the ISS; scientific satellites like the Hubble; Earth observation satellites from companies like Planet Labs, Umbra, and HawkEye 360; GPS; miniature CubeSats for education and research; and military/defense satellites.

Loading next visibility...
STARLINK-1597 details
Identifier
46142, 2020-057AB
Orbit
LEO
Last TLE update11 hours ago
Origin
Flag of USSpaceX/Seattle (US)
ManufacturerSpaceX/Seattle
MissionOperational Commercial Communications
Bus & MotorSTARLINK, Unknown motor
Mass260 kg wet, ~248 kg dry
Launch date (UTC)
2020-08-18 (4 years ago)
Launch vehicle
FALCON 9
Launch site
Air Force Eastern Test Range (AFETR)
Object type
Payload
Rocket body
Debris
Shape & HBRBox + 1 Pan, 8.86 m
Radar Cross Section13.562 m², Large (>1 m²)

Expand to show TLE details & history

TLE from 11 hours ago
0 STARLINK-1597
1 46142U 20057AB  24361.09199723 -.00000041  00000-0  16133-4 0  9991
2 46142  53.0554 125.5559 0001487  89.6361 270.4798 15.06394487239958
Epoch: 2024-12-26T02:12Z
Definitive object data (Epoch: 2024-12-26T02:12:28.56Z)
Latitude-0.00006°
Longitude-2.63951°
Altitude548.099 km
Speed7.589 km/s
True Right ascension08h 22m 13s
True Declination0° 00' 00"
Sunlit
Object was in full shadow at TLE epoch
Visualization TLE readout
Latitude-24.29049°
Longitude-24.42708°
Altitude554.773 km
Speed7.584 km/s
Apparent Right ascension04h 16m 28s
Apparent Declination-42° 05' 18"
Sunlit
Object is in full shadow
Visualization observer readout
Local Sidereal Time12:34:42
Azimuth248.238° W
Elevation-48.848°
Doppler factor1
Orbital elements
Apogee altitude548.529 km
Perigee altitude546.469 km
Semi-major axis6,925.636 km
Eccentricity0.0001487
Inclination53.0554°
RAAN125.5559°
Arg. of periapsis89.6361°
True anomaly270.46276°
Mean anomaly270.4798°
Eccentric anomaly270.47128°
Mean motion3.76577 °/min
BSTAR0.000016133
Orbital period95.6 mins
Loading maneuver chart data...
Loading historical data...
Loading historical data...
Loading historical data...
Loading historical data...
Loading historical data...
Loading historical data...
Loading historical data...

STARLINK-1597 Visibility forecast

Observer location: undefined°, undefined

Span
Click to sort rows by Start time (UTC) header in descending order
Start Az.
Max El. time (UTC)
Max El. Az.
Max El.
End time (UTC)
End Az.
4 mins2024-12-26 13:39:04.371Z307.827° NW2024-12-26 13:41:04.371Z338.471° N15.621°2024-12-26 13:43:04.371Z12.553° NNE
5 mins2024-12-26 17:01:04.371Z344.502° N2024-12-26 17:03:04.371Z31.656° NE26.002°2024-12-26 17:06:04.371Z86.006° E
6 mins2024-12-26 18:40:04.371Z292.294° WNW2024-12-26 18:43:04.371Z201.42° SSW35.67°2024-12-26 18:46:04.371Z152.627° SSE
5 mins2024-12-27 10:13:04.371Z182.805° SSW2024-12-27 10:15:04.371Z143.03° SSE26.648°2024-12-27 10:18:04.371Z77.38° E
6 mins2024-12-27 11:52:04.371Z264.199° W2024-12-27 11:55:04.371Z334.877° NNW32.363°2024-12-27 11:58:04.371Z34.462° NE
|